Theta_e
306 306 307 307 306 318 330 333 336 338 338 336 334 336 336 336 337 337 336 338 336 335 333 331 330 327 324 326 325 320 326 327
306 307 308 306 305 308 328 330 334 337 336 334 331 332 332 333 335 337 336 336 336 334 333 333 333 329 326 325 325 325 324 326
306 307 304 306 309 311 326 331 333 336 336 336 333 331 330 333 333 334 336 334 335 335 333 331 333 329 325 325 326 323 322 325
305 307 306 310 311 317 329 334 335 336 335 331 328 328 326 326 325 330 333 334 334 334 333 332 331 330 328 327 326 324 320 323
305 306 307 310 310 315 318 321 322 324 327 328 324 327 327 326 328 329 330 332 332 332 331 329 330 329 328 326 325 324 322 319
309 309 309 309 309 309 311 312 313 317 318 320 326 325 326 323 323 326 328 330 332 333 331 331 329 327 326 324 323 322 322 319
309 309 308 306 307 307 308 308 308 311 313 314 317 320 323 322 322 323 323 326 331 331 331 329 329 327 323 323 323 322 321 320
306 305 305 305 304 305 306 306 306 307 307 307 309 310 313 321 323 325 325 324 322 326 328 328 327 326 324 323 322 321 320 319
304 304 304 304 304 303 303 303 303 304 304 303 304 306 308 313 323 324 325 325 326 328 327 328 327 325 324 323 322 321 321 320
302 303 303 302 301 301 301 301 301 301 301 301 301 302 304 308 312 325 326 326 325 327 328 327 325 324 323 322 321 320 319 319
298 298 299 300 300 299 299 299 298 298 298 298 299 299 301 304 308 313 325 326 325 326 327 327 324 323 322 321 320 320 318 318
295 296 297 297 297 296 296 295 295 295 295 296 296 297 299 303 305 310 323 325 326 325 327 326 324 322 321 320 319 318 318 317
294 293 294 293 293 293 292 293 293 294 294 295 295 296 298 301 305 315 323 324 324 325 327 325 323 322 321 319 318 317 317 315
292 291 290 291 291 290 290 291 291 293 294 294 294 295 297 299 302 320 322 323 322 325 325 322 321 320 319 319 318 317 316 316
290 289 288 289 289 289 289 290 291 291 292 293 292 294 296 298 303 315 322 322 322 323 322 321 320 319 318 318 317 316 316 316
288 287 287 287 287 288 289 289 289 290 290 291 292 293 295 298 304 313 320 321 322 322 320 320 319 317 317 317 316 315 315 314
287 287 286 286 286 286 287 288 288 288 288 289 290 292 294 296 300 314 319 319 321 321 319 317 316 316 301 302 310 314 314 313
285 285 285 285 285 286 286 287 288 287 287 287 289 290 291 294 296 315 318 318 318 318 317 316 315 315 299 299 300 313 312 312
285 285 284 284 285 285 286 287 286 285 285 285 287 288 289 292 295 303 317 317 316 316 315 315 314 307 297 297 297 311 310 310
Wind_Speed
12 11 11 10 9 13 17 16 18 18 13 9 4 6 6 7 8 9 11 9 11 9 7 8 7 6 5 6 8 3 6 7
10 14 14 10 8 9 16 18 18 12 9 9 6 7 5 4 6 10 11 9 10 10 7 9 8 9 8 8 5 8 4 5
12 11 9 10 7 8 12 15 12 13 10 8 4 5 3 5 5 7 10 10 11 10 9 8 10 7 8 9 8 4 2 8
13 14 8 10 9 8 11 12 13 11 9 6 4 4 3 3 2 5 8 10 11 12 10 9 9 9 8 10 10 10 5 5
7 8 9 9 8 8 11 8 8 6 6 4 1 4 6 5 7 5 7 11 10 10 9 9 10 7 9 9 8 8 7 7
14 18 18 16 14 14 14 16 16 14 11 5 3 3 3 2 2 9 9 9 11 12 11 11 11 8 9 10 9 9 8 5
20 18 18 14 8 12 12 13 12 11 11 11 9 7 5 2 2 5 6 5 8 11 12 12 12 11 11 9 9 11 10 8
15 18 15 13 13 11 11 13 13 11 11 9 7 7 6 5 6 6 8 6 4 8 11 10 10 11 11 11 9 7 9 10
19 16 16 14 13 13 13 14 13 13 11 9 6 5 4 5 6 6 7 8 9 10 11 11 12 12 11 10 8 8 9 9
19 17 16 14 15 16 16 14 13 14 14 12 11 9 9 7 10 9 8 9 8 11 13 13 14 14 13 12 9 10 9 10
15 14 14 13 13 11 11 12 11 10 12 10 10 11 10 11 9 12 13 10 10 10 12 14 13 14 14 13 9 10 10 8
14 12 12 11 10 12 11 12 11 13 12 12 13 12 12 12 12 13 14 12 12 13 14 14 14 14 14 12 11 11 12 9
13 13 12 10 11 11 14 16 13 12 12 13 14 14 14 14 14 14 15 14 10 13 14 14 14 13 14 13 12 10 12 11
14 14 19 19 16 14 13 10 10 12 12 13 14 15 14 15 15 13 11 10 11 13 14 14 13 13 12 12 12 11 11 11
9 11 11 11 12 12 12 14 13 12 12 12 13 14 14 15 14 16 7 7 11 13 14 14 12 12 13 12 11 11 10 10
14 13 11 12 13 12 13 13 14 13 13 13 14 16 15 15 14 15 8 9 12 14 13 11 11 12 9 11 11 10 11 10
14 15 15 14 14 14 13 14 16 13 13 13 15 14 15 15 16 15 9 10 12 13 14 13 13 9 14 14 12 9 9 9
13 13 12 12 12 12 13 13 15 14 14 14 14 15 16 16 15 14 9 11 11 12 12 15 13 10 16 14 12 7 8 8
12 11 11 13 12 13 13 14 14 16 16 16 16 17 17 17 15 18 11 10 12 13 12 12 12 6 15 14 12 8 6 7
Wind_Direction
215 215 215 224 208 190 189 184 192 191 188 181 145 159 175 180 183 184 179 185 177 174 171 169 168 164 161 169 172 156 188 189
201 205 210 217 230 160 181 185 196 178 176 177 164 180 176 188 188 185 180 174 176 171 175 176 174 180 176 170 160 179 180 171
247 230 187 181 179 172 171 185 181 181 178 175 149 157 198 183 186 184 187 179 178 178 174 183 185 170 171 173 172 142 146 169
234 228 169 139 136 142 143 150 160 168 163 117 84 82 82 99 185 190 194 184 184 186 179 174 173 176 186 186 182 170 175 191
209 116 93 92 64 50 85 83 86 87 106 95 94 181 184 198 182 194 178 179 181 186 181 174 174 179 181 186 182 178 155 186
81 87 81 68 70 70 65 68 53 43 38 35 199 203 264 340 147 172 185 185 188 190 189 188 180 177 186 179 182 177 179 173
99 87 87 77 57 71 69 69 61 62 58 45 34 12 327 214 187 184 181 176 189 196 200 192 187 182 177 182 186 182 183 185
97 94 81 74 65 53 62 61 55 46 52 47 37 16 347 278 222 209 192 189 172 197 192 196 185 177 182 175 174 190 192 189
85 71 73 64 55 50 49 45 42 33 26 25 21 13 345 310 258 227 218 203 199 187 194 190 186 173 176 179 180 191 199 202
70 71 66 65 55 43 32 29 28 24 14 0 353 351 333 308 303 265 230 216 205 195 195 192 183 178 179 180 185 188 194 199
61 57 58 55 58 53 41 28 19 6 6 353 334 326 314 295 282 273 240 224 202 190 193 190 186 179 177 180 185 187 192 195
51 48 51 52 47 44 34 25 12 4 349 339 329 322 309 292 280 261 242 227 199 191 192 186 184 183 176 181 185 180 193 190
39 31 36 42 40 29 21 16 4 348 344 334 322 313 308 297 288 255 228 216 193 191 193 187 184 185 174 180 182 186 190 192
19 22 25 20 10 15 10 353 342 340 337 322 318 310 306 300 295 260 230 209 189 192 189 182 172 179 173 178 180 184 188 196
27 33 27 12 9 6 353 351 344 333 325 317 312 304 303 299 290 283 226 192 191 187 183 171 176 176 183 176 175 179 187 195
28 25 19 11 5 357 351 346 340 335 328 322 320 311 310 302 293 279 238 203 196 191 170 175 170 179 175 172 178 182 190 191
26 19 15 10 358 348 343 341 340 334 331 328 322 317 314 309 307 266 222 204 200 185 174 156 168 176 157 165 168 178 177 182
24 19 11 3 347 343 344 342 338 341 335 330 330 328 320 315 308 271 215 207 190 177 170 151 166 154 158 165 162 170 172 178
12 11 1 355 344 349 345 346 348 349 342 338 337 335 326 314 310 293 212 189 186 167 160 165 139 127 157 161 161 151 152 158